Weather History for Walterboro, SC

Change the Weather History Date:

Wednesday, October 31, 2012

  Actual Average Record
Temperature  
Mean Temperature 54 °F -  
Max Temperature 66 °F 72 °F 80 °F (2013)
Min Temperature 42 °F 50 °F 42 °F (2012)
Degree Days  
Heating Degree Days 11    
Growing Degree Days 4 (Base 50)    
Moisture  
Dew Point 27 °F    
Average Humidity 40    
Maximum Humidity 66    
Minimum Humidity 15    
Precipitation  
Precipitation 0.00 in - - ()
Sea Level Pressure  
Sea Level Pressure 29.80 in    
Wind  
Wind Speed 9 mph (WSW)    
Max Wind Speed 20 mph    
Max Gust Speed 28 mph    
Visibility 10 miles    
Events      
Averages and records for this station are not official NWS values.
T = Trace of Precipitation, MM = Missing Value Source: NWS Daily Summary

Daily Weather History Graph

Daily Weather History Graph

Search for Another Location

Airport:

Trip Planner

Search our weather history database for the weather conditions in past years. The results will help you decide how hot, cold, wet, or windy it might be!

Date:

Astronomy

Oct. 31, 2012 Rise Set
Actual Time 7:40 AM EDT 6:31 PM EDT
Civil Twilight 7:14 AM EDT 6:57 PM EDT
Nautical Twilight 6:45 AM EDT 7:26 PM EDT
Astronomical Twilight 6:16 AM EDT 7:55 PM EDT
Moon 7:48 PM EDT (10/31) 9:14 AM EDT (10/31)
Length of Visible Light 11h 42m
Length of Day
10h 51m
Full, 97% of the Moon is Illuminated
Oct 31
Full
Nov 6
Last Quarter
Nov 13
New
Nov 20
First Quarter
Nov 28
Full

Hourly Weather History & Observations

Time (EDT) Temp. Windchill Dew Point Humidity Pressure Visibility Wind Dir Wind Speed Gust Speed Precip Events Conditions
12:15 AM 48.2 °F - 23.0 °F 37% 29.77 in 10.0 mi WSW 6.9 mph - N/A   Clear
12:35 AM 48.2 °F - 23.0 °F 37% 29.77 in 10.0 mi West 9.2 mph - N/A   Clear
12:55 AM 48.2 °F - 23.0 °F 37% 29.77 in 10.0 mi West 8.1 mph - N/A   Clear
1:35 AM 46.4 °F 41.9 °F 24.8 °F 43% 29.77 in 10.0 mi West 9.2 mph - N/A   Clear
2:15 AM 46.4 °F 42.4 °F 24.8 °F 43% 29.78 in 10.0 mi WSW 8.1 mph - N/A   Clear
2:35 AM 46.4 °F 42.9 °F 26.6 °F 46% 29.77 in 10.0 mi West 6.9 mph - N/A   Clear
2:55 AM 46.4 °F 42.4 °F 26.6 °F 46% 29.77 in 10.0 mi West 8.1 mph - N/A   Clear
3:15 AM 46.4 °F 43.5 °F 26.6 °F 46% 29.77 in 10.0 mi West 5.8 mph - N/A   Clear
3:35 AM 46.4 °F 42.9 °F 26.6 °F 46% 29.78 in 10.0 mi West 6.9 mph - N/A   Clear
3:55 AM 44.6 °F 41.4 °F 26.6 °F 49% 29.78 in 10.0 mi West 5.8 mph - N/A   Clear
4:15 AM 44.6 °F 40.7 °F 28.4 °F 53% 29.78 in 10.0 mi West 6.9 mph - N/A   Clear
4:35 AM 44.6 °F 40.7 °F 28.4 °F 53% 29.79 in 10.0 mi WSW 6.9 mph - N/A   Clear
4:55 AM 44.6 °F 40.2 °F 28.4 °F 53% 29.79 in 10.0 mi WSW 8.1 mph - N/A   Clear
5:15 AM 44.6 °F 40.2 °F 28.4 °F 53% 29.79 in 10.0 mi WSW 8.1 mph - N/A   Clear
5:55 AM 42.8 °F 38.6 °F 28.4 °F 57% 29.80 in 10.0 mi West 6.9 mph - N/A   Clear
6:15 AM 42.8 °F 38.6 °F 28.4 °F 57% 29.81 in 10.0 mi WSW 6.9 mph - N/A   Clear
6:35 AM 42.8 °F 38.6 °F 28.4 °F 57% 29.81 in 10.0 mi WSW 6.9 mph - N/A   Clear
6:55 AM 42.8 °F 38.0 °F 28.4 °F 57% 29.81 in 10.0 mi West 8.1 mph - N/A   Clear
7:15 AM 42.8 °F 38.6 °F 28.4 °F 57% 29.81 in 10.0 mi West 6.9 mph - N/A   Clear
7:35 AM 42.8 °F 38.6 °F 28.4 °F 57% 29.81 in 10.0 mi West 6.9 mph - N/A   Clear
7:55 AM 42.8 °F 38.6 °F 30.2 °F 61% 29.82 in 10.0 mi WSW 6.9 mph - N/A   Clear
8:15 AM 44.6 °F 40.2 °F 30.2 °F 57% 29.82 in 10.0 mi WSW 8.1 mph - N/A   Clear
8:35 AM 46.4 °F 42.4 °F 30.2 °F 53% 29.83 in 10.0 mi West 8.1 mph - N/A   Clear
8:55 AM 48.2 °F - 30.2 °F 50% 29.84 in 10.0 mi WSW 11.5 mph 17.3 mph N/A   Clear
9:15 AM 46.4 °F 41.5 °F 30.2 °F 53% 29.84 in 10.0 mi West 10.4 mph - N/A   Clear
9:35 AM 48.2 °F - 30.2 °F 50% 29.84 in 10.0 mi West 10.4 mph 16.1 mph N/A   Clear
9:55 AM 51.8 °F - 30.2 °F 44% 29.84 in 10.0 mi West 11.5 mph 18.4 mph N/A   Clear
10:15 AM 51.8 °F - 28.4 °F 41% 29.83 in 10.0 mi West 11.5 mph 18.4 mph N/A   Clear
10:35 AM 53.6 °F - 28.4 °F 38% 29.83 in 10.0 mi West 13.8 mph 19.6 mph N/A   Clear
11:15 AM 55.4 °F - 28.4 °F 36% 29.83 in 10.0 mi West 10.4 mph 19.6 mph N/A   Clear
11:35 AM 55.4 °F - 28.4 °F 36% 29.83 in 10.0 mi WSW 13.8 mph - N/A   Clear
11:55 AM 59.0 °F - 30.2 °F 34% 29.82 in 10.0 mi West 12.7 mph 20.7 mph N/A   Clear
12:15 PM 59.0 °F - 30.2 °F 34% 29.81 in 10.0 mi WNW 13.8 mph 23.0 mph N/A   Clear
12:35 PM 60.8 °F - 30.2 °F 31% 29.81 in 10.0 mi West 16.1 mph 20.7 mph N/A   Clear
12:55 PM 60.8 °F - 28.4 °F 29% 29.81 in 10.0 mi West 13.8 mph 23.0 mph N/A   Clear
1:35 PM 62.6 °F - 24.8 °F 24% 29.79 in 10.0 mi West 17.3 mph 24.2 mph N/A   Clear
1:55 PM 64.4 °F - 23.0 °F 21% 29.78 in 10.0 mi West 16.1 mph 21.9 mph N/A   Clear
2:15 PM 64.4 °F - 23.0 °F 21% 29.77 in 10.0 mi West 16.1 mph 23.0 mph N/A   Clear
2:35 PM 64.4 °F - 23.0 °F 21% 29.76 in 10.0 mi WSW 15.0 mph 19.6 mph N/A   Clear
2:55 PM 66.2 °F - 21.2 °F 18% 29.76 in 10.0 mi West 13.8 mph 21.9 mph N/A   Clear
3:15 PM 66.2 °F - 17.6 °F 15% 29.75 in 10.0 mi West 19.6 mph 27.6 mph N/A   Clear
3:55 PM 66.2 °F - 17.6 °F 15% 29.75 in 10.0 mi West 18.4 mph 26.5 mph N/A   Clear
4:15 PM 66.2 °F - 17.6 °F 15% 29.75 in 10.0 mi West 15.0 mph 26.5 mph N/A   Clear
4:35 PM 66.2 °F - 17.6 °F 15% 29.76 in 10.0 mi West 13.8 mph 21.9 mph N/A   Clear
5:15 PM 64.4 °F - 19.4 °F 18% 29.77 in 10.0 mi West 11.5 mph 18.4 mph N/A   Clear
5:35 PM 64.4 °F - 19.4 °F 18% 29.77 in 10.0 mi West 10.4 mph 16.1 mph N/A   Clear
6:15 PM 60.8 °F - 21.2 °F 22% 29.78 in 10.0 mi West 6.9 mph - N/A   Clear
6:35 PM 59.0 °F - 23.0 °F 25% 29.79 in 10.0 mi West 5.8 mph - N/A   Clear
6:55 PM 57.2 °F - 23.0 °F 27% 29.80 in 10.0 mi West 5.8 mph - N/A   Clear
7:15 PM 55.4 °F - 24.8 °F 31% 29.80 in 10.0 mi West 3.5 mph - N/A   Clear
7:35 PM 53.6 °F - 24.8 °F 33% 29.81 in 10.0 mi West 5.8 mph - N/A   Clear
7:55 PM 53.6 °F - 24.8 °F 33% 29.81 in 10.0 mi West 4.6 mph - N/A   Clear
8:15 PM 53.6 °F - 26.6 °F 35% 29.82 in 10.0 mi WSW 4.6 mph - N/A   Clear
8:35 PM 53.6 °F - 26.6 °F 35% 29.83 in 10.0 mi West 3.5 mph - N/A   Clear
9:15 PM 51.8 °F - 28.4 °F 41% 29.83 in 10.0 mi WSW 4.6 mph - N/A   Clear
9:35 PM 50.0 °F - 30.2 °F 47% 29.84 in 10.0 mi SW 4.6 mph - N/A   Clear
9:55 PM 48.2 °F - 32.0 °F 54% 29.84 in 10.0 mi SW 3.5 mph - N/A   Clear
10:15 PM 46.4 °F 44.3 °F 30.2 °F 53% 29.85 in 10.0 mi WSW 4.6 mph - N/A   Clear
10:35 PM 48.2 °F - 30.2 °F 50% 29.85 in 10.0 mi SW 5.8 mph - N/A   Clear
10:55 PM 48.2 °F - 30.2 °F 50% 29.85 in 10.0 mi WSW 4.6 mph - N/A   Clear
11:35 PM 46.4 °F 44.3 °F 32.0 °F 57% 29.86 in 10.0 mi WSW 4.6 mph - N/A   Clear
11:55 PM 42.8 °F 39.3 °F 32.0 °F 66% 29.85 in 10.0 mi WSW 5.8 mph - N/A   Clear